Location: Crescent
(42.8242°N, 73.7329°W)
Time: 15:07:08
(UTC+00:00)

A-11 Canister half - Pass Details

Date: 17 February 2026
Orbit: 1525 x 1683 km, 47.3° (Epoch: 9 March)

Event Time Altitude Azimuth Distance (km) Brightness Sun altitude
Rises 23:21:01 0° 263° (W) 4,701 13.9 -10.1°
Reaches altitude 10° 23:24:07 10° 266° (W) 3,707 12.6 -10.7°
Maximum altitude 23:33:25 71° 350° (N) 1,602 9.1 -12.4°
Enters shadow 23:41:15 16° 73° (ENE) 3,237 10.1 -13.8°
